Time,TemperatureF,DewpointF,PressureIn,WindDirection,WindDirectionDegrees,WindSpeedMPH,WindSpeedGustMPH,Humidity,HourlyPrecipIn,Conditions,Clouds,dailyrainin,SolarRadiationWatts/m^2,SoftwareType,DateUTC
2013-06-20 08:18:00,66.0,62.3,30.30,SE,137,1.0,2.0,88,0.00,,,0.00,399,Wunderground v.1.15,2013-06-20 12:18:00,
2013-06-20 08:19:00,65.9,62.2,30.30,SE,137,1.0,2.0,88,0.00,,,0.00,408,Wunderground v.1.15,2013-06-20 12:19:00,
2013-06-20 08:24:00,66.2,62.9,30.30,SE,137,3.0,3.0,89,0.00,,,0.00,436,Wunderground v.1.15,2013-06-20 12:24:00,
2013-06-20 08:29:00,66.6,62.3,30.31,ENE,63,2.0,3.0,86,0.00,,,0.00,459,Wunderground v.1.15,2013-06-20 12:29:00,
2013-06-20 08:34:00,67.1,62.1,30.31,NE,55,3.0,4.0,84,0.00,,,0.00,468,Wunderground v.1.15,2013-06-20 12:34:00,
2013-06-20 08:39:00,67.5,61.8,30.31,East,85,0.0,3.0,82,0.00,,,0.00,476,Wunderground v.1.15,2013-06-20 12:39:00,
2013-06-20 08:44:00,67.5,61.8,30.31,ESE,107,4.0,6.0,82,0.00,,,0.00,485,Wunderground v.1.15,2013-06-20 12:44:00,
2013-06-20 08:49:00,68.0,61.6,30.31,SE,128,4.0,4.0,80,0.00,,,0.00,513,Wunderground v.1.15,2013-06-20 12:49:00,
2013-06-20 08:54:00,68.1,62.0,30.31,ESE,123,3.0,5.0,81,0.00,,,0.00,529,Wunderground v.1.15,2013-06-20 12:54:00,
2013-06-20 08:59:00,68.7,62.3,30.31,NE,50,1.0,4.0,80,0.00,,,0.00,541,Wunderground v.1.15,2013-06-20 12:59:00,
2013-06-20 09:04:00,69.1,61.9,30.31,NNE,32,0.0,3.0,78,0.00,,,0.00,564,Wunderground v.1.15,2013-06-20 13:04:00,
2013-06-20 09:09:00,69.0,61.9,30.31,SE,132,5.0,5.0,78,0.00,,,0.00,585,Wunderground v.1.15,2013-06-20 13:09:00,
2013-06-20 09:14:00,69.4,60.4,30.31,NE,43,3.0,6.0,73,0.00,,,0.00,605,Wunderground v.1.15,2013-06-20 13:14:00,
2013-06-20 09:19:00,70.2,60.4,30.31,ESE,109,3.0,6.0,71,0.00,,,0.00,636,Wunderground v.1.15,2013-06-20 13:19:00,
2013-06-20 09:24:00,70.5,59.4,30.31,ESE,116,2.0,6.0,68,0.00,,,0.00,684,Wunderground v.1.15,2013-06-20 13:24:00,
2013-06-20 09:29:00,71.1,59.2,30.31,ESE,120,3.0,8.0,66,0.00,,,0.00,701,Wunderground v.1.15,2013-06-20 13:29:00,
2013-06-20 09:34:00,71.0,58.2,30.31,SE,137,5.0,6.0,64,0.00,,,0.00,612,Wunderground v.1.15,2013-06-20 13:34:00,
2013-06-20 09:39:00,71.2,59.7,30.31,ESE,117,3.0,7.0,67,0.00,,,0.00,677,Wunderground v.1.15,2013-06-20 13:39:00,
2013-06-20 09:44:00,71.6,59.2,30.31,ESE,119,3.0,7.0,65,0.00,,,0.00,679,Wunderground v.1.15,2013-06-20 13:44:00,
2013-06-20 09:49:00,72.1,58.4,30.31,East,86,3.0,8.0,62,0.00,,,0.00,693,Wunderground v.1.15,2013-06-20 13:49:00,
2013-06-20 09:54:00,71.8,59.0,30.31,SE,138,3.0,5.0,64,0.00,,,0.00,703,Wunderground v.1.15,2013-06-20 13:54:00,
2013-06-20 09:59:00,71.8,58.5,30.30,SE,126,2.0,7.0,63,0.00,,,0.00,714,Wunderground v.1.15,2013-06-20 13:59:00,
2013-06-20 10:04:00,72.0,58.7,30.30,ENE,74,3.0,7.0,63,0.00,,,0.00,728,Wunderground v.1.15,2013-06-20 14:04:00,
2013-06-20 10:09:00,72.6,58.8,30.31,ENE,63,3.0,7.0,62,0.00,,,0.00,737,Wunderground v.1.15,2013-06-20 14:09:00,
2013-06-20 10:14:00,73.3,58.1,30.31,SE,138,5.0,7.0,59,0.00,,,0.00,751,Wunderground v.1.15,2013-06-20 14:14:00,
2013-06-20 10:19:00,73.0,57.8,30.31,SSE,147,4.0,7.0,59,0.00,,,0.00,761,Wunderground v.1.15,2013-06-20 14:19:00,
2013-06-20 10:24:00,73.5,59.7,30.31,SE,124,4.0,6.0,62,0.00,,,0.00,768,Wunderground v.1.15,2013-06-20 14:24:00,
2013-06-20 10:29:00,73.3,59.0,30.31,SE,126,5.0,8.0,61,0.00,,,0.00,779,Wunderground v.1.15,2013-06-20 14:29:00,
2013-06-20 10:35:00,73.9,57.2,30.31,SE,135,4.0,6.0,56,0.00,,,0.00,795,Wunderground v.1.15,2013-06-20 14:35:00,
2013-06-20 10:40:00,74.1,57.9,30.31,SE,130,4.0,6.0,57,0.00,,,0.00,803,Wunderground v.1.15,2013-06-20 14:40:00,
2013-06-20 10:45:00,74.5,57.8,30.32,East,82,3.0,7.0,56,0.00,,,0.00,816,Wunderground v.1.15,2013-06-20 14:45:00,
2013-06-20 10:50:00,74.2,58.5,30.31,East,100,6.0,8.0,58,0.00,,,0.00,826,Wunderground v.1.15,2013-06-20 14:50:00,
2013-06-20 10:55:00,74.8,58.1,30.31,East,99,5.0,8.0,56,0.00,,,0.00,833,Wunderground v.1.15,2013-06-20 14:55:00,
2013-06-20 11:00:00,75.4,57.1,30.31,ENE,73,2.0,5.0,53,0.00,,,0.00,840,Wunderground v.1.15,2013-06-20 15:00:00,
2013-06-20 11:05:00,75.6,57.8,30.31,ENE,74,4.0,8.0,54,0.00,,,0.00,849,Wunderground v.1.15,2013-06-20 15:05:00,
2013-06-20 11:10:00,75.3,57.5,30.31,ESE,103,4.0,5.0,54,0.00,,,0.00,856,Wunderground v.1.15,2013-06-20 15:10:00,
2013-06-20 11:15:00,75.6,57.8,30.31,ENE,58,3.0,8.0,54,0.00,,,0.00,867,Wunderground v.1.15,2013-06-20 15:15:00,
2013-06-20 11:20:00,76.3,58.9,30.31,ENE,75,3.0,6.0,55,0.00,,,0.00,874,Wunderground v.1.15,2013-06-20 15:20:00,
2013-06-20 11:25:00,75.6,58.3,30.32,SE,132,4.0,8.0,55,0.00,,,0.00,881,Wunderground v.1.15,2013-06-20 15:25:00,
2013-06-20 11:30:00,75.4,59.1,30.32,East,96,3.0,4.0,57,0.00,,,0.00,886,Wunderground v.1.15,2013-06-20 15:30:00,
2013-06-20 11:35:00,76.4,59.0,30.32,ENE,57,3.0,9.0,55,0.00,,,0.00,893,Wunderground v.1.15,2013-06-20 15:35:00,
2013-06-20 11:40:00,76.1,58.8,30.32,East,93,6.0,7.0,55,0.00,,,0.00,896,Wunderground v.1.15,2013-06-20 15:40:00,
2013-06-20 11:45:00,76.4,58.0,30.32,SE,132,6.0,8.0,53,0.00,,,0.00,902,Wunderground v.1.15,2013-06-20 15:45:00,
2013-06-20 11:50:00,75.8,59.0,30.32,SE,134,5.0,8.0,56,0.00,,,0.00,884,Wunderground v.1.15,2013-06-20 15:50:00,
2013-06-20 11:55:00,76.7,58.3,30.32,East,86,3.0,8.0,53,0.00,,,0.00,912,Wunderground v.1.15,2013-06-20 15:55:00,
2013-06-20 12:00:00,76.5,58.6,30.32,ENE,59,4.0,5.0,54,0.00,,,0.00,909,Wunderground v.1.15,2013-06-20 16:00:00,
2013-06-20 12:05:00,76.8,59.4,30.31,East,91,2.0,6.0,55,0.00,,,0.00,919,Wunderground v.1.15,2013-06-20 16:05:00,
2013-06-20 12:10:00,77.7,59.2,30.31,SSE,147,4.0,5.0,53,0.00,,,0.00,930,Wunderground v.1.15,2013-06-20 16:10:00,
2013-06-20 12:16:00,77.4,58.9,30.31,East,96,8.0,8.0,53,0.00,,,0.00,933,Wunderground v.1.15,2013-06-20 16:16:00,
2013-06-20 12:21:00,77.9,59.4,30.32,SE,144,4.0,5.0,53,0.00,,,0.00,933,Wunderground v.1.15,2013-06-20 16:21:00,
2013-06-20 12:26:00,77.2,59.3,30.31,ESE,122,0.0,7.0,54,0.00,,,0.00,937,Wunderground v.1.15,2013-06-20 16:26:00,
2013-06-20 12:31:00,77.6,59.6,30.31,ESE,106,1.0,4.0,54,0.00,,,0.00,933,Wunderground v.1.15,2013-06-20 16:31:00,
2013-06-20 12:36:00,78.2,59.7,30.31,East,83,3.0,8.0,53,0.00,,,0.00,939,Wunderground v.1.15,2013-06-20 16:36:00,
2013-06-20 12:41:00,77.4,59.5,30.32,ESE,112,3.0,3.0,54,0.00,,,0.00,939,Wunderground v.1.15,2013-06-20 16:41:00,
2013-06-20 12:46:00,78.2,60.2,30.31,ENE,69,3.0,9.0,54,0.00,,,0.00,942,Wunderground v.1.15,2013-06-20 16:46:00,
2013-06-20 12:51:00,78.1,60.1,30.31,NNE,25,7.0,7.0,54,0.00,,,0.00,937,Wunderground v.1.15,2013-06-20 16:51:00,
2013-06-20 12:56:00,78.1,59.6,30.31,NE,35,4.0,10.0,53,0.00,,,0.00,942,Wunderground v.1.15,2013-06-20 16:56:00,
2013-06-20 13:01:00,78.0,59.5,30.31,SE,132,4.0,5.0,53,0.00,,,0.00,933,Wunderground v.1.15,2013-06-20 17:01:00,
2013-06-20 13:06:00,78.5,60.5,30.31,SSE,150,6.0,8.0,54,0.00,,,0.00,940,Wunderground v.1.15,2013-06-20 17:06:00,
2013-06-20 13:11:00,78.9,60.8,30.31,ENE,78,7.0,9.0,54,0.00,,,0.00,937,Wunderground v.1.15,2013-06-20 17:11:00,
2013-06-20 13:16:00,78.4,59.9,30.31,NE,53,4.0,10.0,53,0.00,,,0.00,935,Wunderground v.1.15,2013-06-20 17:16:00,
2013-06-20 13:21:00,78.4,62.4,30.31,ENE,65,7.0,9.0,58,0.00,,,0.00,937,Wunderground v.1.15,2013-06-20 17:21:00,
2013-06-20 13:26:00,78.5,59.4,30.31,NE,54,2.0,9.0,52,0.00,,,0.00,932,Wunderground v.1.15,2013-06-20 17:26:00,
2013-06-20 13:31:00,78.2,58.6,30.30,ENE,59,0.0,4.0,51,0.00,,,0.00,930,Wunderground v.1.15,2013-06-20 17:31:00,
2013-06-20 13:36:00,78.4,60.4,30.31,NNE,23,5.0,5.0,54,0.00,,,0.00,933,Wunderground v.1.15,2013-06-20 17:36:00,
2013-06-20 13:41:00,78.6,60.6,30.30,NNE,30,0.0,3.0,54,0.00,,,0.00,925,Wunderground v.1.15,2013-06-20 17:41:00,
2013-06-20 13:46:00,78.8,61.3,30.30,ENE,72,0.0,8.0,55,0.00,,,0.00,919,Wunderground v.1.15,2013-06-20 17:46:00,
2013-06-20 13:51:00,79.4,61.3,30.30,NNE,23,5.0,9.0,54,0.00,,,0.00,918,Wunderground v.1.15,2013-06-20 17:51:00,
2013-06-20 13:56:00,78.6,61.6,30.30,ENE,59,4.0,9.0,56,0.00,,,0.00,912,Wunderground v.1.15,2013-06-20 17:56:00,
2013-06-20 14:01:00,78.7,60.7,30.30,East,96,3.0,5.0,54,0.00,,,0.00,914,Wunderground v.1.15,2013-06-20 18:01:00,
2013-06-20 14:06:00,79.2,61.1,30.30,NE,51,3.0,9.0,54,0.00,,,0.00,919,Wunderground v.1.15,2013-06-20 18:06:00,
2013-06-20 14:11:00,79.7,60.0,30.30,ESE,115,3.0,7.0,51,0.00,,,0.00,912,Wunderground v.1.15,2013-06-20 18:11:00,
2013-06-20 14:16:00,79.8,60.6,30.30,SE,138,2.0,7.0,52,0.00,,,0.00,898,Wunderground v.1.15,2013-06-20 18:16:00,
2013-06-20 14:21:00,79.8,60.6,30.30,East,86,2.0,7.0,52,0.00,,,0.00,884,Wunderground v.1.15,2013-06-20 18:21:00,
2013-06-20 14:26:00,80.0,65.3,30.30,WNW,298,1.0,7.0,61,0.00,,,0.00,905,Wunderground v.1.15,2013-06-20 18:26:00,
2013-06-20 14:31:00,80.1,61.4,30.30,NE,50,2.0,6.0,53,0.00,,,0.00,914,Wunderground v.1.15,2013-06-20 18:31:00,
2013-06-20 14:36:00,79.5,62.4,30.30,NW,307,2.0,6.0,56,0.00,,,0.00,886,Wunderground v.1.15,2013-06-20 18:36:00,
2013-06-20 14:41:00,80.2,60.4,30.30,SE,128,4.0,5.0,51,0.00,,,0.00,865,Wunderground v.1.15,2013-06-20 18:41:00,
2013-06-20 14:46:00,79.4,60.8,30.30,ESE,123,4.0,8.0,53,0.00,,,0.00,905,Wunderground v.1.15,2013-06-20 18:46:00,
2013-06-20 14:51:00,79.3,61.7,30.29,SSE,157,1.0,4.0,55,0.00,,,0.00,904,Wunderground v.1.15,2013-06-20 18:51:00,
2013-06-20 14:56:00,80.2,62.0,30.29,ENE,63,4.0,6.0,54,0.00,,,0.00,907,Wunderground v.1.15,2013-06-20 18:56:00,
2013-06-20 15:01:00,80.4,61.2,30.30,SE,135,4.0,6.0,52,0.00,,,0.00,884,Wunderground v.1.15,2013-06-20 19:01:00,
2013-06-20 15:06:00,80.6,61.3,30.29,SE,134,5.0,7.0,52,0.00,,,0.00,865,Wunderground v.1.15,2013-06-20 19:06:00,
2013-06-20 15:11:00,80.8,60.4,30.29,NE,46,2.0,6.0,50,0.00,,,0.00,868,Wunderground v.1.15,2013-06-20 19:11:00,
2013-06-20 15:16:00,80.1,60.9,30.29,SE,132,2.0,6.0,52,0.00,,,0.00,851,Wunderground v.1.15,2013-06-20 19:16:00,
2013-06-20 15:21:00,80.7,60.9,30.29,NE,36,1.0,6.0,51,0.00,,,0.00,851,Wunderground v.1.15,2013-06-20 19:21:00,
2013-06-20 15:26:00,80.0,61.3,30.29,SSE,148,2.0,6.0,53,0.00,,,0.00,886,Wunderground v.1.15,2013-06-20 19:26:00,
2013-06-20 15:31:00,81.1,61.8,30.29,East,86,3.0,5.0,52,0.00,,,0.00,886,Wunderground v.1.15,2013-06-20 19:31:00,
2013-06-20 15:36:00,80.6,61.9,30.28,ESE,113,7.0,8.0,53,0.00,,,0.00,696,Wunderground v.1.15,2013-06-20 19:36:00,
2013-06-20 15:41:00,80.2,62.0,30.28,East,89,5.0,5.0,54,0.00,,,0.00,308,Wunderground v.1.15,2013-06-20 19:41:00,
2013-06-20 15:46:00,80.4,61.2,30.28,ESE,116,2.0,7.0,52,0.00,,,0.00,220,Wunderground v.1.15,2013-06-20 19:46:00,
2013-06-20 15:51:00,79.7,61.1,30.28,East,95,3.0,4.0,53,0.00,,,0.00,178,Wunderground v.1.15,2013-06-20 19:51:00,
2013-06-20 15:56:00,80.0,61.3,30.28,NE,34,3.0,8.0,53,0.00,,,0.00,828,Wunderground v.1.15,2013-06-20 19:56:00,
2013-06-20 16:01:00,80.3,64.2,30.28,North,5,2.0,7.0,58,0.00,,,0.00,831,Wunderground v.1.15,2013-06-20 20:01:00,
2013-06-20 16:07:00,80.5,62.3,30.27,ESE,104,5.0,7.0,54,0.00,,,0.00,552,Wunderground v.1.15,2013-06-20 20:07:00,
2013-06-20 16:12:00,80.3,62.1,30.27,East,86,6.0,9.0,54,0.00,,,0.00,302,Wunderground v.1.15,2013-06-20 20:12:00,
2013-06-20 16:17:00,80.0,61.9,30.28,NE,51,2.0,9.0,54,0.00,,,0.00,207,Wunderground v.1.15,2013-06-20 20:17:00,
2013-06-20 16:22:00,79.6,61.5,30.27,SE,132,0.0,4.0,54,0.00,,,0.00,784,Wunderground v.1.15,2013-06-20 20:22:00,
2013-06-20 16:26:00,80.3,62.1,30.27,ESE,102,7.0,7.0,54,0.00,,,0.00,786,Wunderground v.1.15,2013-06-20 20:26:00,
2013-06-20 16:31:00,80.7,62.0,30.28,NNE,32,1.0,7.0,53,0.00,,,0.00,547,Wunderground v.1.15,2013-06-20 20:31:00,
2013-06-20 16:37:00,80.4,61.7,30.27,NE,55,5.0,7.0,53,0.00,,,0.00,193,Wunderground v.1.15,2013-06-20 20:37:00,
2013-06-20 16:42:00,80.0,61.3,30.27,ESE,111,2.0,5.0,53,0.00,,,0.00,643,Wunderground v.1.15,2013-06-20 20:42:00,
2013-06-20 16:47:00,80.0,61.3,30.27,SE,135,0.0,5.0,53,0.00,,,0.00,657,Wunderground v.1.15,2013-06-20 20:47:00,
2013-06-20 16:52:00,80.1,62.0,30.27,SE,140,1.0,4.0,54,0.00,,,0.00,638,Wunderground v.1.15,2013-06-20 20:52:00,
2013-06-20 16:57:00,80.8,62.6,30.27,NNE,32,6.0,8.0,54,0.00,,,0.00,652,Wunderground v.1.15,2013-06-20 20:57:00,
2013-06-20 17:02:00,81.2,63.0,30.27,East,101,5.0,8.0,54,0.00,,,0.00,557,Wunderground v.1.15,2013-06-20 21:02:00,
2013-06-20 17:07:00,80.3,62.7,30.27,SE,132,4.0,8.0,55,0.00,,,0.00,355,Wunderground v.1.15,2013-06-20 21:07:00,
2013-06-20 17:12:00,79.3,62.2,30.27,ESE,123,4.0,6.0,56,0.00,,,0.00,531,Wunderground v.1.15,2013-06-20 21:12:00,
2013-06-20 17:17:00,79.6,64.0,30.27,ESE,123,3.0,6.0,59,0.00,,,0.00,452,Wunderground v.1.15,2013-06-20 21:17:00,
2013-06-20 17:22:00,79.4,63.3,30.26,SE,143,4.0,5.0,58,0.00,,,0.00,394,Wunderground v.1.15,2013-06-20 21:22:00,
2013-06-20 17:27:00,79.3,63.7,30.26,SSE,162,3.0,6.0,59,0.00,,,0.00,348,Wunderground v.1.15,2013-06-20 21:27:00,
2013-06-20 17:32:00,79.7,63.1,30.26,ENE,69,4.0,6.0,57,0.00,,,0.00,294,Wunderground v.1.15,2013-06-20 21:32:00,
2013-06-20 17:37:00,80.3,63.2,30.26,SE,130,3.0,7.0,56,0.00,,,0.00,352,Wunderground v.1.15,2013-06-20 21:37:00,
2013-06-20 17:42:00,80.1,63.0,30.26,SE,134,4.0,5.0,56,0.00,,,0.00,306,Wunderground v.1.15,2013-06-20 21:42:00,
2013-06-20 17:47:00,79.6,63.5,30.26,SE,133,4.0,5.0,58,0.00,,,0.00,366,Wunderground v.1.15,2013-06-20 21:47:00,
2013-06-20 17:52:00,80.0,62.4,30.26,SE,134,5.0,5.0,55,0.00,,,0.00,306,Wunderground v.1.15,2013-06-20 21:52:00,
2013-06-20 17:58:00,79.8,62.7,30.26,SE,142,4.0,5.0,56,0.00,,,0.00,244,Wunderground v.1.15,2013-06-20 21:58:00,
2013-06-20 18:03:00,80.3,63.2,30.26,East,80,2.0,5.0,56,0.00,,,0.00,225,Wunderground v.1.15,2013-06-20 22:03:00,
2013-06-20 18:08:00,79.9,64.8,30.25,ENE,60,3.0,5.0,60,0.00,,,0.00,246,Wunderground v.1.15,2013-06-20 22:08:00,
2013-06-20 18:13:00,79.6,63.5,30.25,ENE,64,2.0,5.0,58,0.00,,,0.00,267,Wunderground v.1.15,2013-06-20 22:13:00,
2013-06-20 18:18:00,79.7,63.6,30.25,ESE,104,4.0,6.0,58,0.00,,,0.00,188,Wunderground v.1.15,2013-06-20 22:18:00,
2013-06-20 18:23:00,79.2,63.1,30.25,SE,124,4.0,5.0,58,0.00,,,0.00,200,Wunderground v.1.15,2013-06-20 22:23:00,
2013-06-20 18:28:00,79.0,63.0,30.25,East,101,2.0,5.0,58,0.00,,,0.00,206,Wunderground v.1.15,2013-06-20 22:28:00,
2013-06-20 18:33:00,78.8,63.3,30.25,ESE,118,3.0,6.0,59,0.00,,,0.00,216,Wunderground v.1.15,2013-06-20 22:33:00,
2013-06-20 18:38:00,78.3,63.3,30.25,SE,133,5.0,6.0,60,0.00,,,0.00,163,Wunderground v.1.15,2013-06-20 22:38:00,
2013-06-20 18:43:00,77.8,63.7,30.25,SE,129,4.0,5.0,62,0.00,,,0.00,167,Wunderground v.1.15,2013-06-20 22:43:00,
2013-06-20 18:48:00,77.5,63.5,30.25,SE,130,2.0,5.0,62,0.00,,,0.00,158,Wunderground v.1.15,2013-06-20 22:48:00,
2013-06-20 18:53:00,77.4,63.8,30.26,SE,133,3.0,4.0,63,0.00,,,0.00,172,Wunderground v.1.15,2013-06-20 22:53:00,
2013-06-20 18:59:00,77.3,64.2,30.26,SE,136,2.0,4.0,64,0.00,,,0.00,139,Wunderground v.1.15,2013-06-20 22:59:00,
2013-06-20 19:04:00,77.4,63.8,30.26,ESE,109,2.0,4.0,63,0.00,,,0.00,162,Wunderground v.1.15,2013-06-20 23:04:00,
2013-06-20 19:09:00,77.5,63.9,30.26,SE,127,3.0,4.0,63,0.00,,,0.00,163,Wunderground v.1.15,2013-06-20 23:09:00,
2013-06-20 19:14:00,77.9,64.3,30.26,ESE,104,0.0,3.0,63,0.00,,,0.00,148,Wunderground v.1.15,2013-06-20 23:14:00,
2013-06-20 19:19:00,77.9,64.3,30.27,ESE,113,0.0,5.0,63,0.00,,,0.00,120,Wunderground v.1.15,2013-06-20 23:19:00,
2013-06-20 19:24:00,77.9,63.4,30.27,East,101,1.0,7.0,61,0.00,,,0.00,90,Wunderground v.1.15,2013-06-20 23:24:00,
2013-06-20 19:29:00,77.9,63.8,30.27,SE,128,2.0,7.0,62,0.00,,,0.00,79,Wunderground v.1.15,2013-06-20 23:29:00,
2013-06-20 19:34:00,77.7,63.2,30.27,ESE,109,2.0,5.0,61,0.00,,,0.00,70,Wunderground v.1.15,2013-06-20 23:34:00,
2013-06-20 19:39:00,77.3,63.3,30.27,SE,126,2.0,5.0,62,0.00,,,0.00,62,Wunderground v.1.15,2013-06-20 23:39:00,
2013-06-20 19:44:00,76.8,63.2,30.27,ESE,115,1.0,5.0,63,0.00,,,0.00,58,Wunderground v.1.15,2013-06-20 23:44:00,
2013-06-20 19:49:00,76.7,63.2,30.27,ESE,106,0.0,5.0,63,0.00,,,0.00,46,Wunderground v.1.15,2013-06-20 23:49:00,
2013-06-20 19:54:00,76.3,63.2,30.27,East,88,2.0,3.0,64,0.00,,,0.00,40,Wunderground v.1.15,2013-06-20 23:54:00,
2013-06-20 19:59:00,75.8,63.2,30.27,ESE,113,2.0,4.0,65,0.00,,,0.00,35,Wunderground v.1.15,2013-06-20 23:59:00,
2013-06-20 20:04:00,75.1,63.4,30.27,ESE,113,2.0,3.0,67,0.00,,,0.00,32,Wunderground v.1.15,2013-06-21 00:04:00,
2013-06-20 20:09:00,74.7,63.0,30.27,ESE,113,1.0,2.0,67,0.00,,,0.00,26,Wunderground v.1.15,2013-06-21 00:09:00,
2013-06-20 20:14:00,74.8,63.1,30.28,ESE,113,3.0,3.0,67,0.00,,,0.00,25,Wunderground v.1.15,2013-06-21 00:14:00,
2013-06-20 20:20:00,74.7,62.6,30.28,ESE,111,2.0,3.0,66,0.00,,,0.00,18,Wunderground v.1.15,2013-06-21 00:20:00,
2013-06-20 20:25:00,74.3,62.6,30.28,ESE,110,3.0,4.0,67,0.00,,,0.00,12,Wunderground v.1.15,2013-06-21 00:25:00,
2013-06-20 20:30:00,73.9,62.7,30.28,ESE,110,2.0,2.0,68,0.00,,,0.00,7,Wunderground v.1.15,2013-06-21 00:30:00,
2013-06-20 20:35:00,73.7,62.5,30.28,ESE,110,1.0,3.0,68,0.00,,,0.00,0,Wunderground v.1.15,2013-06-21 00:35:00,
2013-06-20 20:40:00,73.3,62.1,30.28,ESE,110,1.0,3.0,68,0.00,,,0.00,0,Wunderground v.1.15,2013-06-21 00:40:00,
2013-06-20 20:45:00,73.2,62.0,30.28,ESE,109,1.0,3.0,68,0.00,,,0.00,0,Wunderground v.1.15,2013-06-21 00:45:00,
2013-06-20 20:50:00,73.3,61.7,30.28,East,87,3.0,3.0,67,0.00,,,0.00,0,Wunderground v.1.15,2013-06-21 00:50:00,
2013-06-20 20:55:00,72.9,61.3,30.28,ESE,113,4.0,5.0,67,0.00,,,0.00,0,Wunderground v.1.15,2013-06-21 00:55:00,
2013-06-20 21:00:00,72.4,60.8,30.28,ESE,115,2.0,4.0,67,0.00,,,0.00,0,Wunderground v.1.15,2013-06-21 01:00:00,
2013-06-20 21:05:00,72.1,60.5,30.28,ESE,102,1.0,5.0,67,0.00,,,0.00,0,Wunderground v.1.15,2013-06-21 01:05:00,
2013-06-20 21:10:00,71.8,60.2,30.28,SE,132,4.0,4.0,67,0.00,,,0.00,0,Wunderground v.1.15,2013-06-21 01:10:00,
2013-06-20 21:15:00,71.5,60.0,30.28,East,95,3.0,5.0,67,0.00,,,0.00,0,Wunderground v.1.15,2013-06-21 01:15:00,
2013-06-20 21:20:00,71.2,60.1,30.29,ESE,107,2.0,2.0,68,0.00,,,0.00,0,Wunderground v.1.15,2013-06-21 01:20:00,
2013-06-20 21:25:00,70.9,59.8,30.29,ESE,110,2.0,5.0,68,0.00,,,0.00,0,Wunderground v.1.15,2013-06-21 01:25:00,
2013-06-20 21:30:00,70.6,59.9,30.29,ESE,110,1.0,2.0,69,0.00,,,0.00,0,Wunderground v.1.15,2013-06-21 01:30:00,
2013-06-20 21:35:00,70.5,59.8,30.29,ESE,110,1.0,3.0,69,0.00,,,0.00,0,Wunderground v.1.15,2013-06-21 01:35:00,
2013-06-20 21:41:00,70.6,59.5,30.29,ESE,110,1.0,1.0,68,0.00,,,0.00,0,Wunderground v.1.15,2013-06-21 01:41:00,
2013-06-20 21:46:00,69.4,60.0,30.30,ESE,110,0.0,1.0,72,0.00,,,0.00,0,Wunderground v.1.15,2013-06-21 01:46:00,
2013-06-20 21:51:00,68.3,60.4,30.29,ESE,110,0.0,2.0,76,0.00,,,0.00,0,Wunderground v.1.15,2013-06-21 01:51:00,
2013-06-20 21:56:00,67.5,60.0,30.30,ESE,110,0.0,2.0,77,0.00,,,0.00,0,Wunderground v.1.15,2013-06-21 01:56:00,
2013-06-20 22:01:00,68.5,59.5,30.30,ESE,109,2.0,3.0,73,0.00,,,0.00,0,Wunderground v.1.15,2013-06-21 02:01:00,
2013-06-20 22:06:00,69.4,59.6,30.30,ESE,110,2.0,3.0,71,0.00,,,0.00,0,Wunderground v.1.15,2013-06-21 02:06:00,
2013-06-20 22:11:00,69.3,59.5,30.30,ESE,111,1.0,3.0,71,0.00,,,0.00,0,Wunderground v.1.15,2013-06-21 02:11:00,
2013-06-20 22:16:00,69.0,59.2,30.31,ESE,116,2.0,4.0,71,0.00,,,0.00,0,Wunderground v.1.15,2013-06-21 02:16:00,
2013-06-20 22:21:00,69.0,58.8,30.31,ESE,116,1.0,2.0,70,0.00,,,0.00,0,Wunderground v.1.15,2013-06-21 02:21:00,
2013-06-20 22:26:00,68.9,59.1,30.31,ESE,116,0.0,2.0,71,0.00,,,0.00,0,Wunderground v.1.15,2013-06-21 02:26:00,
2013-06-20 22:31:00,68.8,59.4,30.31,ESE,117,3.0,3.0,72,0.00,,,0.00,0,Wunderground v.1.15,2013-06-21 02:31:00,
2013-06-20 22:36:00,68.6,59.2,30.31,ESE,118,2.0,4.0,72,0.00,,,0.00,0,Wunderground v.1.15,2013-06-21 02:36:00,
2013-06-20 22:41:00,68.3,58.9,30.31,ESE,105,2.0,3.0,72,0.00,,,0.00,0,Wunderground v.1.15,2013-06-21 02:41:00,
2013-06-20 22:46:00,67.8,58.8,30.31,ESE,105,1.0,3.0,73,0.00,,,0.00,0,Wunderground v.1.15,2013-06-21 02:46:00,
2013-06-20 22:51:00,67.6,58.2,30.31,ESE,105,2.0,3.0,72,0.00,,,0.00,0,Wunderground v.1.15,2013-06-21 02:51:00,
2013-06-20 22:56:00,67.6,58.2,30.31,ESE,109,2.0,5.0,72,0.00,,,0.00,0,Wunderground v.1.15,2013-06-21 02:56:00,
2013-06-20 23:01:00,67.4,58.1,30.31,ESE,115,2.0,2.0,72,0.00,,,0.00,0,Wunderground v.1.15,2013-06-21 03:01:00,
2013-06-20 23:06:00,67.2,57.9,30.31,ESE,105,2.0,3.0,72,0.00,,,0.00,0,Wunderground v.1.15,2013-06-21 03:06:00,
2013-06-20 23:11:00,67.4,57.7,30.32,East,95,1.0,2.0,71,0.00,,,0.00,0,Wunderground v.1.15,2013-06-21 03:11:00,
2013-06-20 23:16:00,67.8,56.9,30.32,ENE,71,2.0,3.0,68,0.00,,,0.00,0,Wunderground v.1.15,2013-06-21 03:16:00,
2013-06-20 23:21:00,68.2,56.8,30.32,East,97,1.0,2.0,67,0.00,,,0.00,0,Wunderground v.1.15,2013-06-21 03:21:00,
2013-06-20 23:27:00,67.6,56.2,30.32,ESE,115,2.0,4.0,67,0.00,,,0.00,0,Wunderground v.1.15,2013-06-21 03:27:00,
2013-06-20 23:32:00,67.2,56.3,30.32,ESE,104,1.0,3.0,68,0.00,,,0.00,0,Wunderground v.1.15,2013-06-21 03:32:00,
2013-06-20 23:37:00,67.1,55.8,30.32,ENE,75,1.0,3.0,67,0.00,,,0.00,0,Wunderground v.1.15,2013-06-21 03:37:00,
2013-06-20 23:42:00,67.2,55.5,30.32,ENE,75,2.0,4.0,66,0.00,,,0.00,0,Wunderground v.1.15,2013-06-21 03:42:00,
2013-06-20 23:47:00,67.1,55.8,30.32,East,88,1.0,4.0,67,0.00,,,0.00,0,Wunderground v.1.15,2013-06-21 03:47:00,
2013-06-20 23:52:00,66.7,55.8,30.32,ENE,64,2.0,3.0,68,0.00,,,0.00,0,Wunderground v.1.15,2013-06-21 03:52:00,
2013-06-20 23:57:00,66.8,55.5,30.32,NE,53,2.0,4.0,67,0.00,,,0.00,0,Wunderground v.1.15,2013-06-21 03:57:00,